Location: Cahas Mountain Overlook
(37.0833°N, 80.1000°W)
Time: 17:39:56
(UTC-05:00)

ARIANE 6 FM1 Upper Stage - Pass Details

Date: 19 January 2026
Orbit: 522 x 609 km, 62.0° (Epoch: 15 February)

Event Time Altitude Azimuth Distance (km) Brightness Sun altitude
Rises 18:54:42 0° 190° (S) 2,724 6.5 -16.5°
Reaches altitude 10° 18:57:06 10° 179° (S) 1,818 5.4 -17.0°
Enters shadow 19:00:38 30° 120° (ESE) 980 3.5 -17.7°
